TimeEST,TemperatureF,Dew PointF,Humidity,Sea Level PressureIn,VisibilityMPH,Wind Direction,Wind SpeedMPH,Gust SpeedMPH,PrecipitationIn,Events,Conditions,WindDirDegrees,DateUTC
12:54 AM,43.0,33.1,68,29.99,10.0,NNW,11.5,-,N/A,,Mostly Cloudy,330,2013-02-16 05:54:00
1:54 AM,39.9,33.1,77,29.98,10.0,NNW,6.9,-,N/A,,Clear,330,2013-02-16 06:54:00
2:54 AM,41.0,33.1,73,29.97,10.0,WNW,5.8,-,N/A,,Mostly Cloudy,300,2013-02-16 07:54:00
3:54 AM,41.0,34.0,76,29.95,10.0,NW,5.8,-,N/A,,Overcast,310,2013-02-16 08:54:00
4:54 AM,39.9,33.1,77,29.95,10.0,NW,10.4,-,N/A,,Overcast,320,2013-02-16 09:54:00
5:19 AM,39.2,33.8,81,29.94,10.0,NNW,8.1,-,N/A,,Overcast,340,2013-02-16 10:19:00
7:03 AM,39.2,33.8,81,29.93,10.0,North,8.1,-,N/A,,Overcast,350,2013-02-16 12:03:00
7:54 AM,39.9,33.1,77,29.94,6.0,North,6.9,-,N/A,,Haze,350,2013-02-16 12:54:00
8:09 AM,39.2,33.8,81,29.94,7.0,NNW,9.2,-,N/A,,Overcast,340,2013-02-16 13:09:00
8:20 AM,39.2,33.8,81,29.95,7.0,NNW,9.2,-,N/A,,Overcast,330,2013-02-16 13:20:00
8:54 AM,41.0,33.1,73,29.95,8.0,North,10.4,-,N/A,,Overcast,360,2013-02-16 13:54:00
9:54 AM,39.0,34.0,82,29.94,4.0,North,8.1,-,0.00,Rain,Light Rain,350,2013-02-16 14:54:00
10:18 AM,39.2,33.8,81,29.92,4.0,North,6.9,-,0.01,Rain,Light Rain,350,2013-02-16 15:18:00
10:33 AM,39.2,33.8,81,29.92,5.0,North,10.4,-,0.01,Rain,Light Rain,360,2013-02-16 15:33:00
10:54 AM,39.0,34.0,82,29.92,6.0,NNE,9.2,-,0.01,,Haze,20,2013-02-16 15:54:00
11:01 AM,39.2,35.6,87,29.91,6.0,NNE,8.1,-,N/A,,Haze,20,2013-02-16 16:01:00
11:32 AM,39.2,35.6,87,29.91,6.0,NNE,8.1,-,0.00,Rain,Light Rain,30,2013-02-16 16:32:00
11:50 AM,39.2,35.6,87,29.90,4.0,North,6.9,-,0.02,Rain,Light Rain,10,2013-02-16 16:50:00
11:54 AM,39.0,34.0,82,29.91,4.0,NNE,5.8,-,0.03,Rain,Light Rain,20,2013-02-16 16:54:00
12:54 PM,39.0,34.0,82,29.89,4.0,North,4.6,-,0.02,Rain,Light Rain,360,2013-02-16 17:54:00
1:25 PM,37.4,33.8,87,29.87,2.5,North,6.9,-,0.04,Snow,Light Snow,350,2013-02-16 18:25:00
1:43 PM,35.6,32.0,87,29.87,1.5,North,6.9,-,0.07,Snow,Light Snow,360,2013-02-16 18:43:00
1:54 PM,36.0,32.0,86,29.87,1.2,North,6.9,-,0.08,Snow,Light Snow,360,2013-02-16 18:54:00
2:25 PM,35.6,33.8,93,29.85,2.5,NNE,5.8,-,0.02,Snow,Light Snow,20,2013-02-16 19:25:00
2:36 PM,37.4,33.8,87,29.84,3.0,North,6.9,-,0.02,Snow,Light Snow,10,2013-02-16 19:36:00
2:54 PM,37.0,33.1,86,29.85,5.0,North,6.9,-,0.03,Snow,Light Snow,10,2013-02-16 19:54:00
3:54 PM,37.9,34.0,86,29.83,5.0,North,5.8,-,0.00,Rain,Light Rain,10,2013-02-16 20:54:00
4:54 PM,37.0,33.1,86,29.81,7.0,North,9.2,-,0.02,Rain,Light Rain,360,2013-02-16 21:54:00
5:34 PM,35.6,32.0,87,29.80,2.0,North,10.4,-,0.01,Snow,Light Snow,360,2013-02-16 22:34:00
5:49 PM,35.6,32.0,87,29.80,3.0,North,9.2,-,0.02,Snow,Light Snow,350,2013-02-16 22:49:00
5:54 PM,36.0,32.0,86,29.81,3.0,North,8.1,-,0.02,Snow,Light Snow,350,2013-02-16 22:54:00
6:32 PM,35.6,30.2,81,29.81,1.8,NNW,11.5,17.3,0.00,Snow,Light Snow,340,2013-02-16 23:32:00
6:54 PM,35.1,30.9,85,29.82,1.5,North,10.4,18.4,0.01,Snow,Light Snow,350,2013-02-16 23:54:00
7:54 PM,35.1,30.9,85,29.82,1.5,NNW,9.2,-,0.02,Snow,Light Snow,330,2013-02-17 00:54:00
8:54 PM,34.0,30.0,85,29.82,1.0,NNW,17.3,23.0,0.01,Snow,Light Snow,330,2013-02-17 01:54:00
9:13 PM,33.8,28.4,81,29.81,1.2,North,12.7,20.7,0.01,Snow,Light Snow,350,2013-02-17 02:13:00
9:20 PM,33.8,28.4,81,29.80,1.2,NNW,15.0,24.2,0.01,Snow,Light Snow,340,2013-02-17 02:20:00
9:40 PM,33.8,28.4,81,29.80,1.2,NNW,9.2,17.3,0.01,Snow,Light Snow,340,2013-02-17 02:40:00
9:54 PM,33.1,28.0,82,29.81,1.5,NNW,18.4,24.2,0.01,Snow,Light Snow,330,2013-02-17 02:54:00
10:01 PM,33.8,26.6,75,29.79,2.0,NNW,16.1,28.8,0.00,Snow,Light Snow,340,2013-02-17 03:01:00
10:39 PM,33.8,28.4,81,29.78,3.0,NNW,11.5,-,0.00,Snow,Light Snow,340,2013-02-17 03:39:00
10:54 PM,33.1,28.0,82,29.79,4.0,NNW,9.2,-,0.00,Snow,Light Snow,340,2013-02-17 03:54:00
11:54 PM,33.1,25.0,72,29.77,10.0,NNW,8.1,-,0.00,,Overcast,340,2013-02-17 04:54:00